Simultaneous Nadir Overpasses (SNOs) Predictions

Prediction of SNOs between FY3D and TERRA Satellite Orbit:

Table of predicted SNOs for the next 14.0 days since TLE Epoch: 6/1/2024
Index Date (FY3D) Time (FY3D) Lat,Lon (FY3D) SZA (FY3D ) Date (TERRA) Time (TERRA) Lat,Lon (TERRA) SZA (TERRA ) Distance(km) Time Diff (sec)
1 06/01/2024 16:58:23 -75.64, 105.47 126.63 06/01/2024 16:59:34 -75.63, 105.39 126.64 2.38 71
2 06/01/2024 17:49:08 75.61, -87.11 53.34 06/01/2024 17:48:54 75.62, -86.99 53.35 3.49 14
3 06/04/2024 05:02:02 75.63, 104.65 53.06 06/04/2024 05:02:12 75.62, 104.66 53.05 0.96 10
4 06/04/2024 05:52:46 -75.58, -87.87 127.00 06/04/2024 05:51:36 -75.56, -87.86 127.02 2.34 70
5 06/06/2024 16:14:57 75.66, -63.61 52.83 06/06/2024 16:15:30 75.65, -63.62 52.82 0.43 33
6 06/06/2024 17:05:41 -75.60, 103.88 127.24 06/06/2024 17:04:54 -75.59, 103.87 127.24 0.89 47
7 06/09/2024 03:27:52 75.69, 128.10 52.64 06/09/2024 03:28:47 75.71, 128.18 52.66 2.95 55
8 06/09/2024 04:18:36 -75.63, -64.39 127.42 06/09/2024 04:18:11 -75.65, -64.32 127.40 3.17 25
9 06/11/2024 14:40:52 75.95, -40.98 52.73 06/11/2024 14:42:02 75.84, -39.81 52.61 34.33 70
10 06/11/2024 15:31:31 -75.66, 127.32 127.57 06/11/2024 15:31:29 -75.64, 127.27 127.60 3.39 2
11 06/11/2024 16:22:04 75.09, -63.56 51.87 06/11/2024 16:20:58 75.14, -66.40 51.91 81.53 66
12 06/14/2024 02:44:26 -75.71, -41.00 127.66 06/14/2024 02:44:45 -75.69, -40.92 127.67 2.47 19



Historial Predications of SNOs between FY3D and TERRA
